Regional Weather Roundup
Issued by NWS

Home | Current Version | Previous Version | Text Only | Print | Product List | Glossary On
Versions: 1 2 3 4 5 6 7 8 9 10 11 12 13 14 15 16 17 18 19 20 21 22 23 24 25 26 27 28 29 30 31 32 33 34 35 36 37 38 39 40 41 42 43 44 45 46 47 48 49 50
000
ASUS43 KLMK 260110
RWRKY
KENTUCKY REGIONAL WEATHER ROUNDUP
NATIONAL WEATHER SERVICE LOUISVILLE KY
900 PM EDT MON MAY 25 2015

NOTE "FAIR" INDICATES FEW OR NO CLOUDS BELOW 12,000 FEET
WITH NO SIGNIFICANT WEATHER AND/OR OBSTRUCTIONS TO VISIBILITY.

KYZ001>023-026-027-061>063-070>075-260200-
WESTERN AND SOUTH CENTRAL KENTUCKY

CITY           SKY/WX    TMP DP  RH WIND       PRES   REMARKS
PADUCAH        MOCLDY    73  67  81 SE6       30.01S
HENDERSON      MOCLDY    70  64  83 S7        30.03R
OWENSBORO      MOCLDY    71  68  90 S8        30.05F
HOPKINSVILLE   MOCLDY    72  68  88 SE7       30.06S
BOWLING GREEN  MOCLDY    71  66  84 SE6       30.09F
GLASGOW        CLOUDY    69  63  81 S6        30.09F
$$

KYZ024-025-028>034-038-045-046-053-260200-
NORTH CENTRAL KENTUCKY

CITY           SKY/WX    TMP DP  RH WIND       PRES   REMARKS
LOUISVILLE/SDF CLOUDY    72  66  81 S7        30.08S
LOUISVILLE/LOU CLOUDY    72  66  81 S6        30.08F
FORT KNOX      CLOUDY    70  66  88 S8        30.07S
$$

KYZ035>037-039>044-047>052-055>060-089>105-260200-
NORTHEAST KENTUCKY

CITY           SKY/WX    TMP DP  RH WIND       PRES   REMARKS
LEXINGTON      CLOUDY    70  66  87 S8        30.11F
COVINGTON      CLOUDY    71  64  78 CALM      30.10S
FRANKFORT      CLOUDY    72  63  73 S8        30.09F
$$

KYZ054-064>069-076>088-106>120-260200-
SOUTHEAST KENTUCKY

CITY           SKY/WX    TMP DP  RH WIND       PRES   REMARKS
JACKSON        PTCLDY    76  60  57 CALM      30.15F
LONDON         CLOUDY    78  59  51 CALM      30.14F
SOMERSET       CLOUDY    70  63  78 CALM      30.14F
MIDDLESBORO    CLOUDY    74  64  69 CALM      30.17F
MONTICELLO     CLOUDY    69  67  93 CALM      30.16F
$$



USA.gov is the U.S. government's official web portal to all federal, state and local government web resources and services.